WetterOnline ( https://www.wetteronline.de )

Wetter aktuell Gstadt

Aktuelles Wetter: Chieming (553m)

6-stündlich | Neueste Meldungen
Ortszeit Temperatur Wetter
Di, 27.07. 14:00 22.3° C bedeckt
Di, 27.07. 8:00 16.9° C bewölkt
Di, 27.07. 2:00 15.7° C bedeckt
Mo, 26.07. 20:00 22.6° C bedeckt
Mo, 26.07. 14:00 22.6° C leicht bewölkt
Mo, 26.07. 8:00 17.1° C bewölkt
Mo, 26.07. 2:00 15.4° C wolkig
So, 25.07. 20:00 19.5° C leichter Regen
Ortszeit Temperatur Wetter
Di, 27.07. 14:30 22.4° C bedeckt
Di, 27.07. 14:20 22.4° C bedeckt
Di, 27.07. 14:10 22.3° C bedeckt
Di, 27.07. 14:00 22.3° C bedeckt
Di, 27.07. 13:50 22.3° C bedeckt
Di, 27.07. 13:40 22.2° C bedeckt
Di, 27.07. 13:30 22.4° C wolkig
Di, 27.07. 13:00 22.4° C wolkig
Di, 27.07. 12:30 22.3° C leicht bewölkt
Di, 27.07. 12:00 21.4° C wolkenlos
Di, 27.07. 11:30 21.6° C leicht bewölkt
Ortszeit Relative Feuchte Sichtweite
Di, 27.07. 14:00 64% 60 km
Di, 27.07. 8:00 84% >70 km
Di, 27.07. 2:00 95% 50 km
Mo, 26.07. 20:00 73% 40 km
Mo, 26.07. 14:00 74% 55 km
Mo, 26.07. 8:00 94% 30 km
Mo, 26.07. 2:00 99% 17 km
So, 25.07. 20:00 93% 20 km
Ortszeit Relative Feuchte Sichtweite
Di, 27.07. 14:30 64% 60 km
Di, 27.07. 14:20 64% -
Di, 27.07. 14:10 64% -
Di, 27.07. 14:00 64% 60 km
Di, 27.07. 13:50 64% -
Di, 27.07. 13:40 62% -
Di, 27.07. 13:30 64% 55 km
Di, 27.07. 13:00 65% 45 km
Di, 27.07. 12:30 64% 30 km
Di, 27.07. 12:00 68% >70 km
Di, 27.07. 11:30 69% 45 km
Ortszeit Niederschlagsmenge Niederschlagsart
Di, 27.07. 14:00 0.0 l/m2 in 6 Std. -
Di, 27.07. 8:00 44 l/m2 in 12 Std. Regen
Di, 27.07. 2:00 43 l/m2 in 6 Std. Regen
Mo, 26.07. 20:00 0.1 l/m2 in 12 Std. -
Mo, 26.07. 14:00 0.1 l/m2 in 6 Std. Regen
Mo, 26.07. 8:00 0.2 l/m2 in 12 Std. -
Mo, 26.07. 2:00 0.2 l/m2 in 6 Std. Regen
So, 25.07. 20:00 5 l/m2 in 12 Std. Regen
Ortszeit Niederschlagsmenge Niederschlagsart
Di, 27.07. 14:30 0.1 l/m2 in 1 Std. Schneeregen
Di, 27.07. 14:20 keine Meldung -
Di, 27.07. 14:10 keine Meldung -
Di, 27.07. 14:00 0.0 l/m2 in 1 Std. -
Di, 27.07. 13:50 keine Meldung -
Di, 27.07. 13:40 keine Meldung -
Di, 27.07. 13:30 0.0 l/m2 in 1 Std. -
Di, 27.07. 13:00 0.0 l/m2 in 1 Std. -
Di, 27.07. 12:30 0.0 l/m2 in 1 Std. -
Di, 27.07. 12:00 0.0 l/m2 in 1 Std. -
Di, 27.07. 11:30 0.0 l/m2 in 1 Std. -
Ortszeit Stärke Spitze Richtung
km/h Bft. km/h Grad Sektor
Di, 27.07. 14:00 7 2 22 10° N
Di, 27.07. 8:00 4 1 18 160° S
Di, 27.07. 2:00 6 1 85 80° O
Mo, 26.07. 20:00 7 2 25 40° NO
Mo, 26.07. 14:00 11 2 22 280° W
Mo, 26.07. 8:00 4 1 14 40° NO
Mo, 26.07. 2:00 4 1 29 160° S
So, 25.07. 20:00 9 2 28 190° S
Ortszeit Stärke Spitze Richtung
km/h Bft. km/h Grad Sektor
Di, 27.07. 14:30 6 1 11 80° O
Di, 27.07. 14:20 6 1 - 80° O
Di, 27.07. 14:10 6 1 - 50° NO
Di, 27.07. 14:00 7 2 19 10° N
Di, 27.07. 13:50 7 2 - 10° N
Di, 27.07. 13:40 7 2 - 10° N
Di, 27.07. 13:30 9 2 19 30° NO
Di, 27.07. 13:00 9 2 22 40° NO
Di, 27.07. 12:30 11 2 18 40° NO
Di, 27.07. 12:00 7 2 14 300° NW
Di, 27.07. 11:30 9 2 15 30° NO
Ortszeit Untergrenze Bedeckung Gattung
total tief tief mittel hoch
Di, 27.07. 14:00 3300 m 8/8 8/8 - - -
Di, 27.07. 8:00 6000 m 7/8 7/8 - - -
Di, 27.07. 2:00 3000 m 8/8 8/8 - - -
Mo, 26.07. 20:00 3000 m 8/8 8/8 - - -
Mo, 26.07. 14:00 6000 m 2/8 2/8 - - -
Mo, 26.07. 8:00 2700 m 8/8 5/8 - - -
Mo, 26.07. 2:00 8700 m 8/8 0/8 - - -
So, 25.07. 20:00 1020 m 7/8 1/8 - - -
Ortszeit Bedeckungsgrad in Achtel und Wolkenuntergrenze
Di, 27.07. 14:30 8(3300m) 8(4200m)
Di, 27.07. 14:20 8(3300m) 8(4200m)
Di, 27.07. 14:10 8(3300m) 8(4200m)
Di, 27.07. 14:00 8(3300m) 8(3900m)
Di, 27.07. 13:50 8(3300m) 8(3900m)
Di, 27.07. 13:40 7(3300m) 8(3900m) 8(4800m)
Di, 27.07. 13:30 1(840m) 8(4200m) 8(4800m)
Di, 27.07. 13:00 2(810m) 5(6000m) 7(9000m)
Di, 27.07. 12:30 2(4800m) 4(10500m) 6(10500m)
Di, 27.07. 12:00 keine Wolken
Di, 27.07. 11:30 2(690m)
Ortszeit Luftdruck NN (hPa) Tendenz (hPa in 3 Std.)
Di, 27.07. 14:00 1014 - 0,9
Di, 27.07. 8:00 1016 + 0,1
Di, 27.07. 2:00 1016 - 0,6
Mo, 26.07. 20:00 1010 0,0
Mo, 26.07. 14:00 1012 + 0,4
Mo, 26.07. 8:00 1013 + 0,7
Mo, 26.07. 2:00 1013 + 0,6
So, 25.07. 20:00 1010 + 0,9
Ortszeit Luftdruck NN (hPa) Tendenz (hPa in 3 Std.)
Di, 27.07. 14:30 1014 - 0,9
Di, 27.07. 14:20 1014 keine Meldung
Di, 27.07. 14:10 1014 keine Meldung
Di, 27.07. 14:00 1014 - 0,9
Di, 27.07. 13:50 1014 keine Meldung
Di, 27.07. 13:40 1014 keine Meldung
Di, 27.07. 13:30 1014 - 0,8
Di, 27.07. 13:00 1014 - 0,6
Di, 27.07. 12:30 1015 - 0,5
Di, 27.07. 12:00 1015 - 0,1
Di, 27.07. 11:30 1015 - 0,1
Ortszeit Schneehöhe (cm)
Di, 27.07. 14:00 -
Di, 27.07. 8:00 -
Di, 27.07. 2:00 -
Mo, 26.07. 20:00 -
Mo, 26.07. 14:00 -
Mo, 26.07. 8:00 -
Mo, 26.07. 2:00 -
So, 25.07. 20:00 -
Ortszeit Schneehöhe (cm)
Di, 27.07. 14:30 -
Di, 27.07. 14:20 -
Di, 27.07. 14:10 -
Di, 27.07. 14:00 -
Di, 27.07. 13:50 -
Di, 27.07. 13:40 -
Di, 27.07. 13:30 -
Di, 27.07. 13:00 -
Di, 27.07. 12:30 -
Di, 27.07. 12:00 -
Di, 27.07. 11:30 -
Link zu dieser Seite / Seite empfehlen

Das Wetter in ...